Regional Weather Roundup
Issued by NWS

Home | Current Version | Previous Version | Graphics & Text | Print | Product List | Glossary On
Versions: 1 2 3 4 5 6 7 8 9 10 11 12 13 14 15 16 17 18 19 20 21 22 23 24 25 26 27 28 29 30 31 32 33 34 35 36 37 38 39 40 41 42 43 44 45 46 47 48 49 50
000
ASUS45 KSLC 142210
RWRUT

UTAH REGIONAL WEATHER ROUNDUP
NATIONAL WEATHER SERVICE SALT LAKE CITY UT
300 PM MST THU DEC 14 2017

UTZ001>011-023>025-142300-

NORTHERN UTAH

CITY           SKY/WX    TMP DP  RH WIND       PRES   REMARKS
BRIGHAM CITY   SUNNY     37  27  68 S5        30.43S WCI  33
DUGWAY         MOSUNNY   40  23  50 VRB2      30.41F
HILL AFB       SUNNY     36  26  67 S5        30.40S WCI  32
LOGAN          SUNNY     32  22  66 SW6       30.42F WCI  26
OGDEN          SUNNY     37  26  64 S5        30.40F WCI  33
SALT LAKE CITY PTSUNNY   39  27  62 NW5       30.42S
TOOELE VALLEY  SUNNY     37  27  65 N5        30.42F WCI  34
WENDOVER       SUNNY     36  23  59 E3        30.42F
HEBER CITY       N/A     41  23  48 SW7       30.32S
WEST JORDAN    SUNNY     37  28  72 NW5       30.42R WCI  33

$$

UTZ011>015-024>027-142300-

CENTRAL/NORTHEAST UTAH

CITY           SKY/WX    TMP DP  RH WIND       PRES   REMARKS
PROVO AIRPORT  MOSUNNY   36  25  64 N5        30.43S WCI  32
MOAB/CANYONLAN SUNNY     50  18  28 NE8       30.26S
DELTA          SUNNY     37  23  56 NW5       30.40S WCI  34
PRICE          SUNNY     48  19  31 VRB5      30.25F
ROOSEVELT      SUNNY     41  19  42 S3        30.33F
VERNAL         SUNNY     42  19  39 SW10      30.31F

$$

UTZ013>016-019>022-027-142300-

SOUTHERN UTAH

CITY           SKY/WX    TMP DP  RH WIND       PRES   REMARKS
BRYCE CANYON   SUNNY     45   9  23 N17G25    30.28S
CEDAR CITY     SUNNY     43  21  41 N12       30.31S
MILFORD        SUNNY     42  23  46 NE15      30.37S
ST GEORGE      CLEAR     58  21  24 SW6       30.23F
HANKSVILLE     SUNNY     50  14  23 CALM      30.30F
BLANDING         N/A     49   4  16 NE12G20   30.26R

$$

REGIONAL REPORTS     COLORADO/ARIZONA

CITY           SKY/WX    TMP DP  RH WIND       PRES   REMARKS
CRAIG, CO      CLOUDY    34  16  47 CALM      30.32F
GRAND JUNCTION   N/A     47  15  27 MISG      30.28S
RIFLE, CO      SUNNY     41  12  30 NW20      30.29R
MONTROSE, CO   SUNNY     41  20  43 CALM      30.27F
CORTEZ, CO     SUNNY     50  15  24 NW10      30.14R
COLORADO CITY    N/A     55  18  22 NW13      30.24S
PAGE, AZ       SUNNY     55  18  23 NE8       30.21S
GRAND CANYON   SUNNY     46  11  24 NE14G21   30.22R
KINGMAN, AZ    SUNNY     61  20  20 N22G28    30.14S
FLAGSTAFF, AZ  SUNNY     42  14  32 NE18G35   30.16R

$$

REGIONAL REPORTS    NEVADA/IDAHO/WYOMING

CITY           SKY/WX    TMP DP  RH WIND       PRES   REMARKS
LAS VEGAS, NV  SUNNY     67  20  16 NE15      30.19F
ELY, NY        SUNNY     45  18  34 N15       30.35F
ELKO, NV       SUNNY     42  25  50 S6        30.39F
POCATELLO, ID  CLOUDY    24  22  91 VRB5      30.45F FOG     WCI  18
BURLEY, ID       N/A     32  23  69 NE6       30.42F WCI  26
FORT BRIDGER,    N/A     38  16  39 W17G24    30.33S WCI  29
EVANSTON, WY   SUNNY     36  19  50 N5        30.34R WCI  32
ROCK SPRINGS,  SUNNY     35  17  47 W16       30.28F WCI  25

$$



USA.gov is the U.S. government's official web portal to all federal, state and local government web resources and services.